Miscellaneous Local Product
Issued by NWS North Platte, NE

Home | Current Version | Previous Version | Text Only | Print | Product List | Glossary On
Versions: 1 2 3 4 5 6 7 8 9 10 11 12 13 14 15 16 17 18 19 20 21 22 23 24 25 26 27 28 29 30 31 32 33 34 35 36 37 38 39 40 41 42 43 44 45 46 47 48 49 50
000
AXUS43 KLBF 011910
MISLBF


WESTERN AND NORTH CENTRAL NEBRASKA HOURLY WEATHER ROUNDUP
NATIONAL WEATHER SERVICE NORTH PLATTE NE
200 PM CDT WED JUL 01 2015

***STATIONS NOT REPORTING VARIABLES SUCH AS SKY/WEATHER OR
PRESSURE ARE PROVIDED BY THE NEBRASKA DEPARTMENT OF
ROADS...RAWS...AND APRS NETWORKS...AND ARE NOT UNDER
NATIONAL WEATHER SERVICE QUALITY CONTROL***

...OBSERVATIONS IN AND NEAR THE EASTERN PANHANDLE OF NEBRASKA...

CITY           SKY/WX    TMP DP  RH WIND       PRES   REMARKS
PINE RIDGE     SUNNY     84  62  47 N9        30.01S
CHADRON        SUNNY     87  59  38 VRB7      29.99F
ALLIANCE       SUNNY     89  53  29 NE12      30.03S
SIDNEY         SUNNY     90  59  35 N7        30.07S
WHITECLAY        N/A     83  57  41 W6          N/A
CRESCENT LAKE    N/A     90  51  26 N10G21      N/A
BIG SPRINGS      N/A     92  60  33 NE7         N/A  HX  91
$$

...OBSERVATIONS IN NORTH CENTRAL NEBRASKA...

CITY           SKY/WX    TMP DP  RH WIND       PRES   REMARKS
VALENTINE      MOSUNNY   85  68  56 N8        29.93S
THEDFORD       SUNNY     88  63  42 N14G20    29.96R
AINSWORTH      MOSUNNY   84  67  57 NE3       29.94S
O`NEILL        CLOUDY    76  67  73 E6        29.93R
ORD            SUNNY     79  66  64 CALM      29.91S
BROKEN BOW     SUNNY     85  69  58 E8        29.93S
VALENTINE NWR    N/A     85  66  52 N10G17      N/A
SPRINGVIEW       N/A     86  70  59 CALM        N/A  HX  91
HALSEY           N/A     89  64  42 NW8G16      N/A  HX  90
BREWSTER         N/A     89  70  52 W6          N/A  HX  94
ROSE             N/A     92  79  65 E5          N/A  HX 109
NEWPORT          N/A     80  69  69 E5          N/A
SARGENT          N/A     81  68  64 CALM        N/A
CHAMBERS         N/A     80  67  65 E3          N/A
EWING            N/A     80  70  71 S5          N/A
$$

...OBSERVATIONS IN SOUTHWEST NEBRASKA AND FAR NORTHEAST COLORADO...

CITY           SKY/WX    TMP DP  RH WIND       PRES   REMARKS
WRAY           FAIR      98  47  17 NE13G18   30.00S HX  94
HOLYOKE        FAIR      97  50  20 N13G21    30.01S HX  94
IMPERIAL       SUNNY     95  59  30 N9        29.98S HX  94
OGALLALA       SUNNY     92  55  29 N12G20    29.98S HX  90
NORTH PLATTE   SUNNY     93  61  34 N13G22    29.93S HX  93
MCCOOK         SUNNY     95  57  27 NE14      29.92R HX  94
LEXINGTON      SUNNY     87  67  51 NE12      29.92S HX  90
PAXTON           N/A     93  56  28 N7          N/A  HX  91
GOTHENBURG       N/A     86  63  46 E7          N/A
CALLAWAY         N/A     87  73  63 E6          N/A  HX  94
$$

...NORTH PLATTE AREA...

CITY           SKY/WX    TMP DP  RH WIND       PRES   REMARKS
AIRPORT        SUNNY     93  61  34 N13G22    29.93S HX  93
DOWNTOWN         N/A     91  59  34 N10         N/A  HX  90
HILLCREST        N/A     90  55  30 NE16G23     N/A
$$

...SOME WEATHER OBSERVATIONS FROM AROUND THE REGION...

CITY           SKY/WX    TMP DP  RH WIND       PRES   REMARKS
DENVER         MOSUNNY   88  50  27 VRB6      30.15F
LARAMIE        MOSUNNY   78  48  34 VRB6      30.27F
CHEYENNE       SUNNY     83  54  36 NE6       30.21S
SCOTTSBLUFF    SUNNY     93  49  22 VRB3      30.04S HX  90
RAPID CITY     SUNNY     82  60  47 N20G28    30.00R HAZE
PIERRE         CLOUDY    77  65  66 E3        29.91R
WINNER         PTSUNNY   83  64  52 VRB7      29.90F
SIOUX FALLS    CLOUDY    70  62  76 E10       29.95S
OMAHA          MOSUNNY   83  69  62 E10       29.87S
GRAND ISLAND   PTSUNNY   79  66  64 NE12      29.91R
KANSAS CITY    CLOUDY    80  74  81 E9        29.84F
WICHITA        CLOUDY    94  63  35 SW13      29.79F HX  95
HAYS           MOSUNNY   95  61  31 NE17G26   29.84R HX  95
LIBERAL        PTSUNNY   91  61  35 N12       29.93F HX  91
GOODLAND       SUNNY     94  53  25 NE16      30.00S HX  91
$$



USA.gov is the U.S. government's official web portal to all federal, state and local government web resources and services.